This is the latest recevied weather packets stored in our database for station/object SV2LPQ-2. If no packets are shown the sender has not sent any weather packets the latest 10 day(s).
| Time | Temp. | Humidity | Pressure | Rain* | Wind** | Luminosity | Snow |
|---|---|---|---|---|---|---|---|
| 1777471138 | 25.56° C | 49% | 1042.5 hPa | 0 mm | - | - | - |
| 1777470638 | 25.56° C | 48% | 1042.5 hPa | 0 mm | - | - | - |
| 1777470138 | 25.56° C | 48% | 1042.5 hPa | 0 mm | - | - | - |
| 1777469637 | 25.56° C | 49% | 1042.5 hPa | 0 mm | - | - | - |
| 1777469137 | 25.56° C | 51% | 1042.5 hPa | 0 mm | - | - | - |
| 1777468637 | 25° C | 50% | 1042.5 hPa | 0 mm | - | - | - |
| 1777468137 | 25° C | 50% | 1042.5 hPa | 0 mm | - | - | - |
| 1777467637 | 25° C | 50% | 1042.5 hPa | 0 mm | - | - | - |
| 1777467137 | 24.44° C | 48% | 1042.5 hPa | 0 mm | - | - | - |
| 1777466637 | 25° C | 48% | 1042.5 hPa | 0 mm | - | - | - |
| 1777466137 | 25° C | 50% | 1042.5 hPa | 0 mm | - | - | - |
| 1777465637 | 25° C | 49% | 1042.5 hPa | 0 mm | - | - | - |
| 1777465136 | 25° C | 49% | 1042.5 hPa | 0 mm | - | - | - |
| 1777464636 | 24.44° C | 50% | 1042.5 hPa | 0 mm | - | - | - |
| 1777464136 | 24.44° C | 50% | 1042.5 hPa | 0 mm | - | - | - |
| 1777463636 | 24.44° C | 50% | 1042.5 hPa | 0 mm | - | - | - |
| 1777463136 | 23.89° C | 51% | 1042.5 hPa | 0 mm | - | - | - |
| 1777462635 | 23.89° C | 50% | 1042.5 hPa | 0 mm | - | - | - |
| 1777462135 | 23.89° C | 50% | 1042.5 hPa | 0 mm | - | - | - |
| 1777461635 | 23.89° C | 50% | 1042.5 hPa | 0 mm | - | - | - |
| 1777461135 | 23.89° C | 53% | 1042.5 hPa | 0 mm | - | - | - |
| 1777460635 | 23.33° C | 50% | 1042.5 hPa | 0 mm | - | - | - |
| 1777460135 | 23.89° C | 50% | 1042.5 hPa | 0 mm | - | - | - |
| 1777459635 | 23.33° C | 50% | 1042.5 hPa | 0 mm | - | - | - |
| 1777459134 | 22.78° C | 51% | 1042.5 hPa | 0 mm | - | - | - |
* Rain latest hour (hover to see other rain measurements)
** Current wind speed in m/s (hover to see current wind gust speed)